Skip Page Navigation
NASA JPL Caltech
NASA Logo - Jet Propulsion Laboratory + View the NASA Portal
+ Center for Near-Earth Object Studies
JPL Home Earth Solar System Stars & Galaxies Technology
JPL Solar System Dynamics
BODIES ORBITS EPHEMERIDES TOOLS PHYSICAL DATA DISCOVERY FAQ SITE MAP
IMPORTANT: The SSD Announcement email list is now available. Major changes are coming in the near future, including possible hostname and/or URL changes. To be notified of such changes, subscribe to this email list.

Please visit this page for more details.


JPL Small-Body Database Browser
Search: [ help ]  
3879 Machar (1983 QA)
Classification: Main-belt Asteroid          SPK-ID: 2003879
Ephemeris | Orbit Diagram | Orbital Elements | Mission Design | Physical Parameters | Discovery Circumstances | Close-Approach Data ]

[ show orbit diagram ]
Orbital Elements at Epoch 2458600.5 (2019-Apr-27.0) TDB
Reference: JPL 28 (heliocentric ecliptic J2000)
 Element Value Uncertainty (1-sigma)   Units 
e .2573119936732127 4.1915e-08  
a 2.355798668477129 7.1372e-09 au
q 1.749623416398579 9.996e-08 au
i 8.660409955839036 4.9762e-06 deg
node 322.0048599001736 2.5033e-05 deg
peri 31.7877367739231 2.6173e-05 deg
M 299.6284993945322 8.0855e-06 deg
tp 2458821.980326448570
(2019-Dec-04.48032645)
3.0116e-05 TDB
period 1320.704582822047
3.62
6.0019e-06
1.643e-08
d
yr
n .2725817754268418 1.2387e-09 deg/d
Q 2.961973920555679 8.9737e-09 au
  Orbit Determination Parameters
   # obs. used (total)      1756  
   data-arc span      26309 days (72.03 yr)  
   first obs. used      1947-10-21  
   last obs. used      2019-11-01  
   planetary ephem.      DE431  
   SB-pert. ephem.      SB431-N16  
   condition code      0  
   norm. resid. RMS      .47901  
   source      ORB  
   producer      Otto Matic  
   solution date      2019-Nov-07 02:30:33  

Additional Information
 Earth MOID = .749377 au 
 Jupiter MOID = 2.49375 au 
 T_jup = 3.494 
[ show covariance matrix ]

Ephemeris | Orbit Diagram | Orbital Elements | Mission Design | Physical Parameters | Discovery Circumstances | Close-Approach Data ]

Physical Parameter Table
Parameter Symbol Value Units Sigma Reference Notes
absolute magnitude H 13.2   n/a MPO448952  
diameter diameter 5.712 km 0.139 urn:nasa:pds:neowise_diameters_albedos::2.0[mainbelt] (http://adsabs.harvard.edu/abs/2011ApJ...741...68M)  
rotation period rot_per 4.131 h n/a LCDB (Rev. 2019-January); Warner et al., 2009 Published Reference List:
[Behrend, R. (2012) Observatoire de Geneve web site, http://obswww.unige.ch/~behrend/page_cou.html]
[Menzies, K. (2012) Posting on CALL web site. http://www.minorplanet.info/call.html]
[Chang, C.K.; Ip, W.-H.; Lin, H.-W.; Cheng, Y.C.; et al. (2015) Astrophys. J. Supp. Ser. 219, A27.]
[Waszczak, A.; Chang, C.-K.; Ofeck, E.O.; Laher, F.; et al. (2015) Astron. J. 150, A75.]
geometric albedo albedo 0.375   0.060 urn:nasa:pds:neowise_diameters_albedos::2.0[mainbelt] (http://adsabs.harvard.edu/abs/2011ApJ...741...68M)  

3879 Machar (1983 QA)          Discovered 1983-Aug-16 by Vavrova, Z. at Klet
Reference: DISCOVERY.DBLast Updated: 2003-08-29

[ hide close-approach data ]
Close-Approach Data   ...sorted by Date/Time (TDB)
Date/Time (TDB) Time Uncertainty
(days_HH:MM)
Body Nominal Distance (au) Minimum Distance (au) Maximum Distance (au) V-relative (km/s) V-infinity (km/s) JD (TDB) Time Uncertainty (minutes) Semi-major axis (km) Semi-minor axis (km) range-LOV angle (deg) N-sigma BP Orbit Ref. Reference Modified
1966-Nov-29 08:37 < 00:01 Europ 0.0449096628226981 0.0449071509603061 0.0449121746878842 6.08360672878447 6.08360668988257 2439458.858903151 0.368357783021406 126.532718479404 28.9987584037621 8.48032990726366 62630.386577121 T 28 CATAB v2.0f-lin.ifort 2019-Nov-07 02:30:43 2019-Nov-07 02:30

Alternate Designations
 1983 QA = 1947 UG = 1976 UJ1 
Ephemeris | Orbit Diagram | Orbital Elements | Mission Design | Physical Parameters | Discovery Circumstances | Close-Approach Data ]
ABOUT SSD CREDITS/AWARDS PRIVACY/COPYRIGHT GLOSSARY LINKS
FirstGov 2019-Dec-09 16:09 UT
(server date/time)  
NASA Home Page
Site Manager:   Ryan S. Park
Webmaster  Alan B. Chamberlin